Home > Weather > Unalaska > Past weeks

Flag for USA Past Weather in Unalaska, Alaska, USA — Yesterday and Last 2 Weeks

Now
52 °F

Overcast.


Feels Like: 52 °F
Forecast: 50 / 56 °F
Wind: No wind

Location: Dutch Harbor

Current Time: Jul 27, 2016 at 11:22:04 AM

Latest Report: Jul 27, 2016 at 10:56 AM


Visibility: 10 mi

Pressure: 29.90 "Hg

Humidity: 77%

Dew Point: 45 °F

Location of UnalaskaLocation

Past Weather in Unalaska — Graph

°F

Unalaska Temperature Yesterday

Maximum temperature yesterday: 57 °F (at 4:56 PM)
Minimum temperature yesterday: 52 °F (at 10:56 PM)
Average temperature yesterday: 54 °F

High & Low Weather Summary for the Past Weeks

 TemperatureHumidityPressure
High72 °F (Jul 19, 5:56 PM)100% (Jul 19, 7:59 AM)30.53 "Hg (Jul 19, 7:59 AM)
Low49 °F (Jul 14, 8:56 AM)57% (Jul 20, 7:53 AM)29.81 "Hg (Jul 25, 5:59 PM)
Average56 °F81%30.15 "Hg
* Reported Jul 12 9:59 AM — Jul 27 9:56 AM, Unalaska, Weather by CustomWeather, © 2016

Note: Actual official high and low records may vary slightly from our data, if they occured in-between our weather recording intervals... More about our weather records

Advertising

Unalaska Weather History for the Previous 24 Hours

Scroll right to see more
 ConditionsComfort  
Time TempWeatherWind HumidityBarometerVisibility
9:56 AM
Wed, Jul 27
51 °FMostly cloudy.No wind80%29.90 "Hg10 mi
8:56 AM51 °FMostly cloudy.No wind77%29.89 "Hg10 mi
7:56 AM51 °FMostly cloudy.5 mph80%29.88 "Hg10 mi
6:56 AM51 °FPassing clouds.6 mph80%29.88 "Hg10 mi
5:56 AM51 °FPassing clouds.7 mph80%29.88 "Hg10 mi
2:56 AM52 °FOvercast.7 mph77%29.88 "Hg10 mi
1:56 AM52 °FPassing clouds.9 mph75%29.89 "Hg10 mi
10:56 PM
Tue, Jul 26
52 °FPassing clouds.9 mph75%29.89 "Hg10 mi
8:56 PM54 °FBroken clouds.8 mph69%29.87 "Hg10 mi
7:59 PM55 °FBroken clouds.9 mph69%29.87 "Hg10 mi
6:56 PM57 °FPassing clouds.9 mph64%29.87 "Hg10 mi
5:56 PM57 °FPassing clouds.14 mph64%29.87 "Hg10 mi
4:56 PM57 °FPassing clouds.16 mph62%29.87 "Hg10 mi
2:59 PM56 °FPassing clouds.17 mph65%29.88 "Hg10 mi
1:59 PM56 °FPartly sunny.15 mph67%29.88 "Hg10 mi
12:56 PM55 °FPartly sunny.13 mph67%29.88 "Hg10 mi
11:56 AM54 °FPartly sunny.17 mph69%29.88 "Hg10 mi
Weather by CustomWeather, © 2016

See weather overviewHow to use our weather pages